C/2007 W3 ( LINEAR )

Japanese version
Home page
Total 5,708 html files since Dec. 4, 1995
Updated on May 6, 2008

---------------------------------------------------------------------

* Profile

Discovery Date November 29, 2007
Magnitude 19.6 mag
Discoverer Lincoln Laboratory Near-Earth Asteroid Research project

* Pictures

* Orbital Elements

Epoch 2008 May 14.0 TT = JDT 2454600.5
T 2008 June 2.81555 TT                                  MPC
q   1.7761788            (2000.0)            P               Q
z  +0.0000634      Peri.  112.64703     -0.28565810     -0.19645653
 +/-0.0000518      Node    73.06407     -0.64943620     -0.68006102
e   0.9998873      Incl.   78.66714     +0.70472127     -0.70634400

* Finding Charts

* Magnitudes Graph

        m1 = 12.5 + 5 log d + 10.0 log r

---------------------------------------------------------------------

The orbital elements are published on M.P.E.C. 2008-B23.
The charts are made with StellaNavigator Ver.8 (AstroArts).
The magnitudes graphs are made with Comet for Windows.

---------------------------------------------------------------------

Copyright(C) 1995-2007 Seiichi Yoshida (comet@aerith.net). All rights reserved.